Location: Fleischmann Planetarium and Science Center
(39.5456°N, 119.8190°W)
Time: 08:10:20
(UTC-07:00)

Daily predictions for brighter satellites

Satellite Brightness Start Highest point End
(mag) Time Altitude Azimuth Time Altitude Azimuth Time Altitude Azimuth
Helios 1A 3.9 20:14:32 10° SE 20:18:16 31° ENE 20:22:01 10° N
Molniya-1 2.5 20:18:23 10° SSW 20:19:57 43° ESE 20:21:51 10° NE
DELTA 2 R/B (1) 4.1 20:19:28 10° W 20:24:55 53° SSW 20:30:21 10° SE
Cosmos 1869 3.8 20:21:16 10° SSE 20:24:56 39° E 20:28:37 10° NNE
GRACE-1 3.9 20:24:21 10° N 20:27:04 56° E 20:29:45 10° S
GRACE-2 3.9 20:24:45 10° N 20:27:28 56° E 20:30:09 10° S
CZ-4B DEB 4.1 20:26:45 11° ESE 20:29:01 22° ENE 20:31:27 10° NNE
Cosmos 1697 Rocket 4.1 20:23:45 10° SW 20:29:07 44° WNW 20:34:31 10° N
OAO 3 Rocket 3.7 20:25:18 10° WSW 20:29:57 45° S 20:34:27 11° E
Cosmos 1892 3.0 20:26:26 10° NNW 20:30:12 68° W 20:33:59 10° S
Resurs 01 Rocket 1.8 20:26:07 10° S 20:30:34 80° WSW 20:35:03 10° NNW
Spot 2 Rocket 3.6 20:26:06 10° SSE 20:31:12 88° W 20:36:19 10° NNW
BREEZE-M DEB (TANK) 3.8 20:27:41 10° SW 20:31:30 55° SE 20:39:14 10° ENE
Cosmos 1400 Rocket 3.6 20:29:49 10° NNW 20:33:37 54° W 20:37:28 10° S
Meteor 1-29 3.7 20:32:42 10° NNE 20:35:51 31° E 20:38:57 10° SSE
H-2A R/B 3.8 20:35:34 10° S 20:39:20 47° W 20:43:06 10° NNW
USA 267 4.4 20:34:56 10° NE 20:41:06 46° NNW 20:47:15 10° WSW
CZ-3B DEB 3.0 20:43:11 10° WNW 20:46:19 20° WSW 20:48:23 10° SSW
Cosmos 2263 Rocket 3.1 20:41:38 10° N 20:46:34 31° ENE 20:50:09 16° ESE
Cosmos 220 Rocket 4.3 20:42:20 10° N 20:46:42 52° ENE 20:50:11 15° SE
Cosmos 1315 Rocket 3.0 20:43:20 10° NNW 20:47:25 75° W 20:51:26 10° S
OTV 4 3.0 20:48:46 10° SW 20:49:40 11° SSW 20:50:34 10° S
Cosmos 1933 4.3 20:47:17 15° SE 20:49:51 28° E 20:53:18 10° NNE
Cosmos 2322 Rocket 2.2 20:45:24 10° S 20:50:52 59° ESE 20:56:24 10° NNE
Envisat 3.1 20:46:09 10° SSE 20:51:08 61° ENE 20:56:09 10° N
Cosmos 2142 Rocket 4.4 20:46:46 10° S 20:52:52 78° E 20:59:02 10° N
Cosmos 1825 2.2 20:55:47 10° N 20:59:32 61° E 21:02:12 18° SSE
Cosmos 2360 Rocket 3.1 20:57:15 12° SSE 21:01:25 27° ESE 21:06:05 10° NE
Cosmos 1980 Rocket 3.7 20:56:53 10° SW 21:02:11 40° WNW 21:07:33 10° N
GENESIS II 4.3 20:59:13 10° SSW 21:03:09 53° ESE 21:07:08 10° NE
SEDSat Delta rocket 4.4 21:03:29 10° SW 21:08:15 32° SSE 21:10:43 24° SE
USA 186 3.3 21:06:15 10° SSW 21:08:37 29° W 21:11:10 10° NNW
Cosmos 2026 Rocket 3.9 21:06:27 10° N 21:12:44 89° E 21:18:51 10° S
Cosmos 1862 3.3 21:10:06 10° N 21:14:06 63° E 21:16:03 28° SSE
USA 234 3.2 21:10:13 21° SE 21:14:50 85° NE 21:21:26 10° NW
Helios 1B rocket 3.1 21:13:13 10° N 21:17:15 57° WNW 21:21:16 10° SSW
ERBS 2.6 21:14:49 10° NW 21:18:14 60° SW 21:19:24 36° SSE
SL-16 R/B 2.3 21:12:58 10° SSW 21:18:38 83° WNW 21:24:21 10° NNE
Lacrosse 4 Rocket 1.4 21:15:04 10° NNW 21:19:25 88° ENE 21:21:30 31° SSE
Cosmos 1939 Rocket 3.0 21:20:15 20° S 21:23:00 73° W 21:27:02 10° NNW
ERS-1 Rocket 3.0 21:22:09 29° SE 21:24:36 60° ENE 21:29:34 10° N
Cosmos 1733 Rocket 3.0 21:21:29 10° N 21:25:58 89° WSW 21:28:29 26° S
ATLAS 5 CENTAUR R/B 3.0 21:20:43 10° NNW 21:26:23 42° NE 21:29:19 27° ESE
ORS 1 (USA 231) 4.4 21:25:50 10° W 21:28:56 81° N 21:29:11 72° ENE
Cosmos 1862 Rocket 3.6 21:27:08 11° S 21:31:22 82° W 21:35:52 10° N
Cosmos 1408 3.8 21:30:35 10° NNW 21:34:05 41° W 21:36:28 18° SSW
ARGOS 3.7 21:34:29 33° ESE 21:35:56 40° ENE 21:40:55 10° N
SeaSat 1 3.2 21:36:49 33° E 21:38:07 39° ENE 21:42:41 10° N
Cosmos 1655 Rocket 4.3 21:33:53 10° NNW 21:40:14 69° W 21:45:34 15° S
Meteor 1-26 Rocket 4.2 21:40:50 31° SSE 21:43:33 63° E 21:49:15 10° NNE
Okean 1-7 4.2 21:44:46 28° ENE 21:44:46 28° ENE 21:47:40 10° NNE
Cosmos 1992 Rocket 4.4 21:39:27 10° SSW 21:44:38 63° WNW 21:49:51 10° NNE
SL-08 RB Rocket 4.3 21:47:56 38° ENE 21:48:05 38° ENE 21:52:19 10° N
Terra 3.7 21:48:57 17° ENE 21:48:57 17° ENE 21:51:44 10° NNE
Cosmos 1844 Rocket 4.1 21:45:24 10° N 21:49:46 23° NE 21:50:44 22° ENE
Cosmos 1703 Rocket 3.5 21:51:18 60° E 21:51:22 60° E 21:55:45 10° NNE
YAOGAN 11 4.0 21:51:29 63° ESE 21:51:59 70° ENE 21:56:20 10° N
Atlas Centaur 2 3.4 21:48:52 10° SW 21:55:41 39° SSE 21:56:51 37° SSE
USA 229 DEB 3.6 21:50:57 10° SSW 21:57:35 60° ESE 22:04:23 10° NE
USA 229 3.6 21:51:03 10° SSW 21:57:42 59° ESE 22:04:29 10° NE
Cosmos 2221 Rocket 4.0 21:58:59 46° ENE 21:58:59 46° ENE 22:02:33 10° NNE
Cosmos 2266 Rocket 3.9 21:54:31 10° N 22:00:49 75° E 22:02:48 46° SSE
YAOGAN 6 4.0 22:05:50 30° WSW 22:06:29 32° W 22:09:47 10° NNW
Nimbus 7 Rocket 4.3 22:00:48 10° NNE 22:06:43 66° ESE 22:08:00 52° SSE
Cosmos 2219 Rocket 4.1 22:10:17 15° ENE 22:10:17 15° ENE 22:11:33 10° NE
MetOp-A 4.2 22:09:59 48° S 22:11:25 71° WSW 22:16:48 10° NNW
Cosmos 1867 3.4 22:07:26 10° NNW 22:12:54 75° ENE 22:13:26 68° ESE
OAO 3 Rocket 3.9 22:08:27 10° W 22:12:17 42° SW 22:12:17 42° SW
CZ-4C R/B 4.4 22:08:33 10° NNW 22:13:52 22° NE 22:17:20 17° ENE
H-2A R/B 2.2 22:14:05 53° ENE 22:14:05 53° ENE 22:18:45 10° N
MOS 1-B Rocket 3.8 22:13:24 56° SSE 22:14:44 82° ENE 22:20:25 10° NNW
Meteor 1-14 Rocket 4.2 22:14:14 10° N 22:19:55 82° W 22:20:56 62° S
SPOT 5 2.9 22:22:39 67° SW 22:22:56 69° WSW 22:27:39 10° NNW
Cosmos 2237 4.1 22:23:57 73° S 22:24:26 81° ESE 22:30:12 10° NNE
Cosmos 968 Rocket 3.6 22:21:23 10° NNW 22:26:32 65° WSW 22:26:54 63° SW
Milstar 3 4.0 22:21:58 10° WSW 22:26:44 24° SSW 22:26:44 24° SSW
Cosmos 2263 Rocket 3.3 22:25:27 10° NW 22:30:28 36° WSW 22:31:52 31° SW
COSMOS 2428 2.8 22:34:03 62° NE 22:34:03 62° NE 22:38:56 10° NNE
Meteor 1-25 Rocket 4.1 22:29:40 10° N 22:35:17 83° W 22:35:25 82° SW
H-2A R/B 3.3 22:38:13 35° NNE 22:38:13 35° NNE 22:40:54 10° N
Nadezhda 2 Rocket 4.4 22:32:40 10° N 22:39:09 90° SE 22:39:49 74° S
Cosmos 2360 Rocket 3.4 22:39:52 10° SW 22:45:10 41° WNW 22:50:31 10° N
Cosmos 1844 4.2 22:47:18 10° NNW 22:52:07 50° NE 22:52:07 50° NE
Meteor 1-20 Rocket 4.4 22:49:04 10° NNW 22:54:26 63° W 22:54:26 63° W
S3M 4.3 23:01:31 54° NE 23:01:31 54° NE 23:06:29 10° NNE
Okean 2 Rocket 4.4 22:56:32 10° NNW 22:59:46 37° NW 22:59:46 37° NW
SPOT 1/Viking Rocket 4.4 23:01:38 43° W 23:01:38 43° W 23:06:20 10° NNW
Meteor 2-6 Rocket 4.4 23:04:21 73° NNW 23:04:21 73° NNW 23:09:48 10° N
ATLAS 5 CENTAUR R/B 3.4 23:05:31 10° NW 23:10:52 37° WSW 23:10:52 37° WSW
Cosmos 2333 Rocket 3.4 23:16:06 35° NE 23:16:06 35° NE 23:19:23 10° NNE
SeaSat 1 4.2 23:16:36 25° W 23:16:36 25° W 23:19:49 10° NW
Cosmos 2237 Rocket 3.7 23:23:19 27° NE 23:23:19 27° NE 23:25:52 10° NNE
Cosmos 2278 Rocket 3.1 23:19:42 10° NNW 23:23:48 43° NNE 23:23:48 43° NNE
Terra 3.4 23:27:49 33° NW 23:27:49 33° NW 23:30:40 10° NNW
Cosmos 1844 Rocket 3.7 23:28:34 10° NNW 23:32:24 40° WNW 23:32:24 40° WNW
Cosmos 1745 Rocket 4.3 23:29:36 10° N 23:34:51 63° NNW 23:34:51 63° NNW
NOSS 3-1 (C) 4.1 23:46:08 51° N 23:46:08 51° N 23:51:22 10° NNE
Cosmos 2219 Rocket 3.3 23:51:56 39° NNW 23:51:56 39° NNW 23:56:10 10° N
H-2A R/B 4.3 23:54:42 15° WNW 23:54:42 15° WNW 23:56:42 10° NW
